SFR851 FIMP-FAOR

Flight info

Callsign SFR851
Flight time N/A
Altitude 36000
Route SOBAT1 SOBAT UA401 SDG UG653 SUNIR UT444 ETIVI DCT IMKAN UT446 IBGUB
Aircraft B738/M-SDE2E3FGHIRWXY/LB1

Departure

Time N/A
Airport Sir Seewoosagur Ramgoolam International Airport (FIMP)

Arrival

Time 2026-05-04 16:28
Airport O.R. Tambo International Airport (FAOR)
Time Latitude Longitude Altitude Speed Heading
2026-05-04 15:45 -25.25597 32.42520 35962 ft 414 kts 264°
2026-05-04 15:46 -25.25912 32.39358 35966 ft 414 kts 264°
2026-05-04 15:46 -25.26434 32.34100 35977 ft 414 kts 264°
2026-05-04 15:47 -25.27059 32.27775 35975 ft 414 kts 264°
2026-05-04 15:47 -25.27782 32.20431 35975 ft 413 kts 264°
2026-05-04 15:48 -25.28300 32.15143 35979 ft 413 kts 264°
2026-05-04 15:48 -25.29217 32.05729 35996 ft 412 kts 265°
2026-05-04 15:49 -25.29827 31.99445 35988 ft 411 kts 265°
2026-05-04 15:49 -25.30530 31.92148 35997 ft 410 kts 265°
2026-05-04 15:50 -25.31030 31.86940 35999 ft 409 kts 265°
2026-05-04 15:50 -25.31628 31.80691 36010 ft 408 kts 265°
2026-05-04 15:51 -25.32222 31.74455 36009 ft 408 kts 265°
2026-05-04 15:51 -25.32811 31.68231 36020 ft 407 kts 265°
2026-05-04 15:52 -25.33393 31.62061 36036 ft 406 kts 265°
2026-05-04 15:52 -25.33976 31.55853 36036 ft 406 kts 265°
2026-05-04 15:53 -25.34556 31.49651 36062 ft 406 kts 265°
2026-05-04 15:53 -25.35133 31.43449 36062 ft 406 kts 265°
2026-05-04 15:54 -25.35708 31.37246 36084 ft 406 kts 265°
2026-05-04 15:54 -25.36275 31.31095 36099 ft 406 kts 265°
2026-05-04 15:55 -25.36844 31.24888 36100 ft 406 kts 265°
2026-05-04 15:55 -25.37412 31.18676 36104 ft 406 kts 266°
2026-05-04 15:56 -25.37979 31.12462 36102 ft 405 kts 265°
2026-05-04 15:56 -25.39164 31.06366 36107 ft 407 kts 257°
2026-05-04 15:57 -25.40668 31.00336 36110 ft 407 kts 257°
2026-05-04 15:57 -25.42141 30.94327 36117 ft 407 kts 258°
2026-05-04 15:58 -25.43598 30.88285 36146 ft 407 kts 258°
2026-05-04 15:58 -25.45045 30.82251 36148 ft 406 kts 258°
2026-05-04 15:59 -25.46490 30.76208 36140 ft 406 kts 258°
2026-05-04 15:59 -25.47932 30.70170 36170 ft 406 kts 258°
2026-05-04 16:00 -25.49359 30.64182 36151 ft 405 kts 258°
2026-05-04 16:00 -25.50791 30.58164 36179 ft 405 kts 258°
2026-05-04 16:01 -25.52223 30.52133 36184 ft 405 kts 258°
2026-05-04 16:01 -25.53647 30.46127 36186 ft 406 kts 258°
2026-05-04 16:02 -25.55077 30.40079 36181 ft 406 kts 258°
2026-05-04 16:03 -25.57220 30.30993 36201 ft 406 kts 258°
2026-05-04 16:03 -25.58643 30.24949 36220 ft 405 kts 258°
2026-05-04 16:04 -25.60061 30.18909 36212 ft 404 kts 258°
2026-05-04 16:04 -25.62167 30.09921 36233 ft 403 kts 259°
2026-05-04 16:05 -25.63571 30.03910 36232 ft 403 kts 259°
2026-05-04 16:06 -25.65672 29.94896 36198 ft 403 kts 259°
2026-05-04 16:06 -25.67557 29.86782 34731 ft 409 kts 258°
2026-05-04 16:07 -25.68496 29.82733 33844 ft 411 kts 258°
2026-05-04 16:07 -25.70630 29.73522 32094 ft 408 kts 258°
2026-05-04 16:08 -25.71334 29.70478 31615 ft 405 kts 258°
2026-05-04 16:08 -25.73400 29.61518 30229 ft 399 kts 258°
2026-05-04 16:09 -25.74762 29.55597 29194 ft 393 kts 259°
2026-05-04 16:09 -25.76102 29.49760 28257 ft 387 kts 259°
2026-05-04 16:10 -25.77417 29.44016 27355 ft 381 kts 259°
2026-05-04 16:11 -25.79344 29.35579 26030 ft 375 kts 260°
2026-05-04 16:11 -25.79981 29.32784 25589 ft 373 kts 260°
2026-05-04 16:12 -25.81872 29.24479 24529 ft 364 kts 261°
2026-05-04 16:12 -25.85002 29.16576 23184 ft 386 kts 242°
2026-05-04 16:13 -25.87993 29.11703 22269 ft 382 kts 241°
2026-05-04 16:13 -25.90992 29.06886 21394 ft 377 kts 240°
2026-05-04 16:14 -25.93967 29.02127 20539 ft 373 kts 240°
2026-05-04 16:14 -25.96913 28.97418 19695 ft 369 kts 240°
2026-05-04 16:15 -26.01301 28.90438 18401 ft 365 kts 240°
2026-05-04 16:16 -26.04190 28.85858 17492 ft 361 kts 240°
2026-05-04 16:16 -26.08431 28.79049 16245 ft 353 kts 240°
2026-05-04 16:17 -26.11176 28.74566 15450 ft 349 kts 240°
2026-05-04 16:18 -26.15167 28.67921 14273 ft 343 kts 240°
2026-05-04 16:18 -26.16473 28.65711 13863 ft 342 kts 240°
2026-05-04 16:19 -26.20350 28.59138 12636 ft 335 kts 240°
2026-05-04 16:19 -26.22887 28.54835 11878 ft 330 kts 240°
2026-05-04 16:20 -26.26614 28.48494 10855 ft 321 kts 240°
2026-05-04 16:20 -26.28893 28.44419 10597 ft 298 kts 252°
2026-05-04 16:21 -26.29468 28.38260 10457 ft 248 kts 270°
2026-05-04 16:22 -26.29559 28.34550 10277 ft 233 kts 271°
2026-05-04 16:22 -26.29651 28.29402 9515 ft 214 kts 271°
2026-05-04 16:23 -26.29678 28.24912 9196 ft 186 kts 277°
2026-05-04 16:24 -26.28019 28.19873 8247 ft 184 kts 351°
2026-05-04 16:25 -26.25408 28.20176 7741 ft 189 kts
2026-05-04 16:26 -26.20683 28.21553 6863 ft 167 kts 12°
2026-05-04 16:26 -26.17337 28.22605 6175 ft 166 kts 13°
2026-05-04 16:27 -26.15125 28.23289 5714 ft 166 kts 13°
2026-05-04 16:28 -26.12684 28.24042 5540 ft 44 kts 15°
2026-05-04 16:28 -26.12597 28.23866 5543 ft 11 kts 195°
2026-05-04 16:29 -26.12994 28.23744 5547 ft 15 kts 195°
2026-05-04 16:30 -26.13124 28.23570 5546 ft 11 kts 277°
2026-05-04 16:31 -26.13143 28.23413 5546 ft 11 kts 197°
2026-05-04 16:31 -26.13278 28.23467 5547 ft 5 kts 96°
2026-05-04 16:32 -26.13280 28.23488 5548 ft 0 kts 96°